Time,TemperatureF,DewpointF,PressureIn,WindDirection,WindDirectionDegrees,WindSpeedMPH,WindSpeedGustMPH,Humidity,HourlyPrecipIn,Conditions,Clouds,dailyrainin,SoftwareType,DateUTC
2013-06-24 00:02:00,74.0,71.0,30.04,WSW,251,0.0,0.0,90,0.00,,,0.01,,2013-06-24 04:02:00,
2013-06-24 00:12:00,74.0,71.0,30.04,WSW,251,0.0,0.0,90,0.00,,,0.01,,2013-06-24 04:12:00,
2013-06-24 00:22:00,74.0,71.0,30.04,WSW,251,0.0,0.0,90,0.00,,,0.01,,2013-06-24 04:22:00,
2013-06-24 00:33:00,74.0,71.0,30.04,WSW,251,0.0,0.0,91,0.00,,,0.01,,2013-06-24 04:33:00,
2013-06-24 00:43:00,74.0,71.0,30.04,WSW,251,0.0,0.0,91,0.00,,,0.01,,2013-06-24 04:43:00,
2013-06-24 00:53:00,74.0,71.0,30.03,WSW,251,0.0,0.0,91,0.00,,,0.01,,2013-06-24 04:53:00,
2013-06-24 01:02:00,74.0,71.0,30.03,SSE,154,0.0,0.0,90,0.00,,,0.01,,2013-06-24 05:02:00,
2013-06-24 01:12:00,74.0,71.0,30.03,SSE,154,0.0,0.0,90,0.00,,,0.01,,2013-06-24 05:12:00,
2013-06-24 01:22:00,74.0,71.0,30.03,SSE,154,0.0,0.0,90,0.00,,,0.01,,2013-06-24 05:22:00,
2013-06-24 01:36:00,74.0,71.0,30.03,SSE,154,0.0,0.0,90,0.00,,,0.01,,2013-06-24 05:36:00,
2013-06-24 01:46:00,74.0,71.0,30.03,SSE,154,0.0,0.0,90,0.00,,,0.01,,2013-06-24 05:46:00,
2013-06-24 01:57:00,73.0,70.0,30.02,SSE,159,0.0,0.0,90,0.00,,,0.01,,2013-06-24 05:57:00,
2013-06-24 02:09:00,73.0,70.0,30.02,SSE,159,0.0,0.0,90,0.00,,,0.01,,2013-06-24 06:09:00,
2013-06-24 02:24:00,73.0,70.0,30.03,SSE,158,0.0,0.0,91,0.00,,,0.01,,2013-06-24 06:24:00,
2013-06-24 02:45:00,73.0,70.0,30.03,SSE,159,0.0,0.0,91,0.00,,,0.01,,2013-06-24 06:45:00,
2013-06-24 02:57:00,73.0,70.0,30.03,SSE,159,0.0,0.0,91,0.00,,,0.01,,2013-06-24 06:57:00,
2013-06-24 03:30:00,72.0,69.0,30.03,SSE,159,0.0,0.0,91,0.00,,,0.01,,2013-06-24 07:30:00,
2013-06-24 03:37:00,72.0,70.0,30.03,SSE,159,0.0,0.0,92,0.00,,,0.01,,2013-06-24 07:37:00,
2013-06-24 03:47:00,72.0,70.0,30.03,SSE,159,0.0,0.0,92,0.00,,,0.01,,2013-06-24 07:47:00,
2013-06-24 03:55:00,72.0,70.0,30.03,SSE,159,0.0,0.0,92,0.00,,,0.01,,2013-06-24 07:55:00,
2013-06-24 04:04:00,72.0,69.0,30.03,SW,224,0.0,0.0,90,0.00,,,0.01,,2013-06-24 08:04:00,
2013-06-24 04:14:00,72.0,69.0,30.03,SW,224,0.0,0.0,89,0.00,,,0.01,,2013-06-24 08:14:00,
2013-06-24 04:27:00,72.0,69.0,30.03,SW,224,0.0,0.0,90,0.00,,,0.01,,2013-06-24 08:27:00,
2013-06-24 04:36:00,72.0,69.0,30.03,SW,224,0.0,0.0,89,0.00,,,0.01,,2013-06-24 08:36:00,
2013-06-24 04:46:00,72.0,69.0,30.03,SW,224,0.0,0.0,89,0.00,,,0.01,,2013-06-24 08:46:00,
2013-06-24 05:06:00,71.0,68.0,30.03,SSE,163,0.0,0.0,90,0.00,,,0.01,,2013-06-24 09:06:00,
2013-06-24 05:15:00,71.0,68.0,30.03,SSE,163,0.0,0.0,90,0.00,,,0.01,,2013-06-24 09:15:00,
2013-06-24 05:37:00,72.0,69.0,30.03,SSE,162,0.0,0.0,90,0.00,,,0.01,,2013-06-24 09:37:00,
2013-06-24 05:47:00,71.0,68.0,30.03,SSE,162,0.0,0.0,90,0.00,,,0.01,,2013-06-24 09:47:00,
2013-06-24 06:00:00,71.0,68.0,30.04,SSE,162,0.0,0.0,90,0.00,,,0.01,,2013-06-24 10:00:00,
2013-06-24 06:14:00,71.0,68.0,30.05,SSE,162,0.0,0.0,90,0.00,,,0.01,,2013-06-24 10:14:00,
2013-06-24 06:24:00,71.0,68.0,30.05,SSE,162,0.0,0.0,90,0.00,,,0.01,,2013-06-24 10:24:00,
2013-06-24 06:37:00,71.0,68.0,30.04,SSE,162,0.0,0.0,91,0.00,,,0.01,,2013-06-24 10:37:00,
2013-06-24 06:50:00,71.0,68.0,30.04,SSE,163,0.0,0.0,91,0.00,,,0.01,,2013-06-24 10:50:00,
2013-06-24 07:03:00,70.0,68.0,30.05,SSE,163,0.0,0.0,92,0.00,,,0.01,,2013-06-24 11:03:00,
2013-06-24 07:15:00,70.0,68.0,30.05,South,179,0.0,0.0,92,0.00,,,0.01,,2013-06-24 11:15:00,
2013-06-24 07:29:00,71.0,69.0,30.05,South,179,0.0,0.0,93,0.00,,,0.01,,2013-06-24 11:29:00,
2013-06-24 07:34:00,71.0,69.0,30.05,South,179,0.0,0.0,93,0.00,,,0.01,,2013-06-24 11:34:00,
2013-06-24 07:47:00,71.0,69.0,30.06,South,179,0.0,0.0,94,0.00,,,0.01,,2013-06-24 11:47:00,
2013-06-24 07:56:00,71.0,69.0,30.06,ESE,106,0.0,0.0,93,0.00,,,0.01,,2013-06-24 11:56:00,
2013-06-24 08:05:00,72.0,70.0,30.08,WSW,237,0.0,0.0,93,0.00,,,0.01,,2013-06-24 12:05:00,
2013-06-24 08:16:00,72.0,70.0,30.08,WSW,237,0.0,0.0,93,0.00,,,0.01,,2013-06-24 12:16:00,
2013-06-24 08:24:00,72.0,69.0,30.09,SSW,210,0.0,0.0,91,0.00,,,0.01,,2013-06-24 12:24:00,
2013-06-24 08:36:00,73.0,70.0,30.09,SW,215,0.0,0.0,89,0.00,,,0.01,,2013-06-24 12:36:00,
2013-06-24 08:48:00,73.0,69.0,30.09,WSW,258,0.0,0.0,87,0.00,,,0.01,,2013-06-24 12:48:00,
2013-06-24 08:55:00,73.0,69.0,30.09,WSW,258,0.0,0.0,87,0.00,,,0.01,,2013-06-24 12:55:00,
2013-06-24 09:06:00,73.0,69.0,30.09,WSW,258,0.0,0.0,87,0.00,,,0.01,,2013-06-24 13:06:00,
2013-06-24 09:24:00,73.0,69.0,30.09,WSW,240,0.0,0.0,86,0.00,,,0.01,,2013-06-24 13:24:00,
2013-06-24 09:36:00,73.0,69.0,30.09,WSW,240,0.0,0.0,86,0.00,,,0.01,,2013-06-24 13:36:00,
2013-06-24 09:44:00,73.0,69.0,30.10,WSW,241,0.0,0.0,87,0.00,,,0.01,,2013-06-24 13:44:00,
2013-06-24 10:16:00,73.0,69.0,30.10,WSW,253,0.0,0.0,87,0.00,,,0.01,,2013-06-24 14:16:00,
2013-06-24 10:24:00,73.0,69.0,30.10,WSW,253,0.0,0.0,86,0.00,,,0.01,,2013-06-24 14:24:00,
2013-06-24 10:45:00,74.0,70.0,30.09,South,189,0.0,0.0,86,0.00,,,0.01,,2013-06-24 14:45:00,
2013-06-24 10:56:00,74.0,70.0,30.09,South,189,0.0,0.0,86,0.00,,,0.01,,2013-06-24 14:56:00,
2013-06-24 11:05:00,74.0,70.0,30.09,South,189,0.0,0.0,86,0.00,,,0.01,,2013-06-24 15:05:00,
2013-06-24 11:36:00,75.0,70.0,30.10,SW,235,0.0,0.0,84,0.00,,,0.01,,2013-06-24 15:36:00,
2013-06-24 11:54:00,74.0,70.0,30.10,South,181,0.0,0.0,86,0.00,,,0.01,,2013-06-24 15:54:00,
2013-06-24 12:04:00,74.0,70.0,30.10,South,181,0.0,0.0,86,0.00,,,0.01,,2013-06-24 16:04:00,
2013-06-24 12:24:00,74.0,69.0,30.10,SW,214,0.0,0.0,85,0.00,,,0.01,,2013-06-24 16:24:00,
2013-06-24 12:36:00,74.0,69.0,30.10,SW,214,0.0,0.0,85,0.00,,,0.01,,2013-06-24 16:36:00,
2013-06-24 13:06:00,75.0,70.0,30.09,West,274,0.0,0.0,85,0.00,,,0.01,,2013-06-24 17:06:00,
2013-06-24 13:15:00,75.0,71.0,30.09,West,269,0.0,0.0,86,0.00,,,0.01,,2013-06-24 17:15:00,
2013-06-24 13:47:00,76.0,71.0,30.09,West,261,0.0,0.0,85,0.00,,,0.01,,2013-06-24 17:47:00,
2013-06-24 14:15:00,78.0,72.0,30.08,SW,228,0.0,0.0,82,0.00,,,0.01,,2013-06-24 18:15:00,
2013-06-24 14:46:00,79.0,72.0,30.07,SSE,155,0.0,0.0,80,0.00,,,0.01,,2013-06-24 18:46:00,
2013-06-24 15:06:00,78.0,72.0,30.07,WSW,258,0.0,0.0,83,0.00,,,0.01,,2013-06-24 19:06:00,
2013-06-24 15:25:00,78.0,72.0,30.06,SSE,159,0.0,0.0,81,0.00,,,0.01,,2013-06-24 19:25:00,
2013-06-24 15:37:00,78.0,72.0,30.06,SSE,159,0.0,0.0,81,0.00,,,0.01,,2013-06-24 19:37:00,
2013-06-24 15:45:00,78.0,72.0,30.06,SSE,159,0.0,0.0,81,0.00,,,0.01,,2013-06-24 19:45:00,
2013-06-24 16:05:00,78.0,72.0,30.04,WSW,237,0.0,0.0,81,0.00,,,0.00,,2013-06-24 20:05:00,
2013-06-24 16:12:00,78.0,72.0,30.04,WSW,237,0.0,0.0,81,0.00,,,0.00,,2013-06-24 20:12:00,
2013-06-24 16:24:00,80.0,73.0,30.03,WSW,243,0.0,0.0,80,0.00,,,0.00,,2013-06-24 20:24:00,
2013-06-24 16:34:00,80.0,73.0,30.02,WSW,243,0.0,0.0,79,0.00,,,0.00,,2013-06-24 20:34:00,
2013-06-24 16:45:00,82.0,74.0,30.02,SW,214,0.0,0.0,77,0.00,,,0.00,,2013-06-24 20:45:00,
2013-06-24 17:04:00,82.0,73.0,30.03,WSW,250,0.0,0.0,75,0.00,,,0.00,,2013-06-24 21:04:00,
2013-06-24 17:14:00,82.0,73.0,30.03,SSW,210,0.0,0.0,75,0.00,,,0.00,,2013-06-24 21:14:00,
2013-06-24 17:25:00,82.0,74.0,30.02,West,260,0.0,0.0,77,0.00,,,0.00,,2013-06-24 21:25:00,
2013-06-24 17:46:00,80.0,73.0,30.02,West,264,0.0,0.0,79,0.00,,,0.00,,2013-06-24 21:46:00,
2013-06-24 18:05:00,80.0,73.0,30.02,West,264,0.0,0.0,79,0.00,,,0.00,,2013-06-24 22:05:00,
2013-06-24 18:24:00,80.0,73.0,30.01,WSW,256,0.0,0.0,80,0.00,,,0.00,,2013-06-24 22:24:00,
2013-06-24 18:36:00,80.0,73.0,30.01,SSW,211,0.0,0.0,79,0.00,,,0.00,,2013-06-24 22:36:00,
2013-06-24 18:55:00,81.0,73.0,30.01,SE,134,0.0,0.0,78,0.00,,,0.00,,2013-06-24 22:55:00,
2013-06-24 19:05:00,80.0,73.0,30.02,South,179,0.0,0.0,79,0.00,,,0.00,,2013-06-24 23:05:00,
2013-06-24 19:14:00,80.0,73.0,30.02,SSE,155,0.0,0.0,79,0.00,,,0.00,,2013-06-24 23:14:00,
2013-06-24 19:27:00,80.0,73.0,30.02,SSE,155,0.0,0.0,79,0.00,,,0.00,,2013-06-24 23:27:00,
2013-06-24 19:35:00,80.0,72.0,30.02,South,172,0.0,0.0,78,0.00,,,0.00,,2013-06-24 23:35:00,
2013-06-24 19:45:00,80.0,72.0,30.02,South,172,0.0,0.0,78,0.00,,,0.00,,2013-06-24 23:45:00,
2013-06-24 20:06:00,80.0,73.0,30.02,SW,216,0.0,0.0,80,0.00,,,0.00,,2013-06-25 00:06:00,
2013-06-24 20:12:00,79.0,73.0,30.02,SSE,158,0.0,0.0,81,0.00,,,0.00,,2013-06-25 00:12:00,
2013-06-24 20:24:00,79.0,73.0,30.02,South,170,0.0,0.0,81,0.00,,,0.00,,2013-06-25 00:24:00,
2013-06-24 20:34:00,79.0,73.0,30.02,South,170,0.0,0.0,82,0.00,,,0.00,,2013-06-25 00:34:00,
2013-06-24 20:47:00,78.0,72.0,30.01,SSE,155,0.0,0.0,83,0.00,,,0.00,,2013-06-25 00:47:00,
2013-06-24 20:55:00,78.0,73.0,30.01,SSW,209,0.0,0.0,84,0.00,,,0.00,,2013-06-25 00:55:00,
2013-06-24 21:04:00,77.0,72.0,30.01,SSW,204,0.0,0.0,84,0.00,,,0.00,,2013-06-25 01:04:00,
2013-06-24 21:17:00,77.0,72.0,30.01,SSW,204,0.0,0.0,84,0.00,,,0.00,,2013-06-25 01:17:00,
2013-06-24 21:44:00,76.0,72.0,30.00,SSW,206,0.0,0.0,86,0.00,,,0.00,,2013-06-25 01:44:00,
2013-06-24 21:55:00,76.0,72.0,30.00,SSW,206,0.0,0.0,86,0.00,,,0.00,,2013-06-25 01:55:00,
2013-06-24 22:16:00,76.0,72.0,30.00,SSW,206,0.0,0.0,86,0.00,,,0.00,,2013-06-25 02:16:00,
2013-06-24 22:25:00,74.0,71.0,30.01,SSW,206,0.0,0.0,89,0.00,,,0.00,,2013-06-25 02:25:00,
2013-06-24 23:33:00,72.0,70.0,30.02,SSW,206,0.0,0.0,92,0.00,,,0.00,,2013-06-25 03:33:00,
2013-06-24 23:44:00,72.0,70.0,30.02,SSW,207,0.0,0.0,92,0.00,,,0.00,,2013-06-25 03:44:00,
2013-06-24 23:53:00,72.0,70.0,30.02,SSW,207,0.0,0.0,92,0.00,,,0.00,,2013-06-25 03:53:00,
2013-06-24 23:59:00,72.0,70.0,30.02,SSW,207,0.0,0.0,92,0.00,,,0.00,,2013-06-25 03:59:00,